TimeEDT,TemperatureF,Dew PointF,Humidity,Sea Level PressureIn,VisibilityMPH,Wind Direction,Wind SpeedMPH,Gust SpeedMPH,PrecipitationIn,Events,Conditions,WindDirDegrees,DateUTC
12:52 AM,63.0,62.1,97,29.97,6.0,Calm,Calm,-,N/A,,Clear,0,2013-05-21 04:52:00
1:52 AM,62.1,61.0,96,29.97,6.0,Calm,Calm,-,N/A,,Clear,0,2013-05-21 05:52:00
1:59 AM,62.6,60.8,94,29.97,6.0,Calm,Calm,-,N/A,,Partly Cloudy,0,2013-05-21 05:59:00
2:50 AM,62.6,60.8,94,29.94,1.5,Calm,Calm,-,N/A,,Overcast,0,2013-05-21 06:50:00
2:52 AM,62.1,61.0,96,29.94,0.8,Calm,Calm,-,N/A,,Overcast,0,2013-05-21 06:52:00
2:56 AM,62.6,60.8,94,29.94,0.2,Calm,Calm,-,N/A,Fog,Fog,0,2013-05-21 06:56:00
3:52 AM,62.1,61.0,96,29.94,0.2,Calm,Calm,-,N/A,Fog,Fog,0,2013-05-21 07:52:00
4:52 AM,61.0,61.0,100,29.95,0.2,Calm,Calm,-,N/A,Fog,Fog,0,2013-05-21 08:52:00
5:52 AM,61.0,61.0,100,29.96,0.2,Calm,Calm,-,0.01,Fog,Fog,0,2013-05-21 09:52:00
6:03 AM,60.8,60.8,100,29.95,0.2,Calm,Calm,-,N/A,Fog,Fog,0,2013-05-21 10:03:00
6:12 AM,60.8,60.8,100,29.95,0.2,Calm,Calm,-,N/A,Fog,Fog,0,2013-05-21 10:12:00
6:52 AM,61.0,61.0,100,29.96,0.2,ENE,3.5,-,N/A,Fog,Fog,70,2013-05-21 10:52:00
6:59 AM,60.8,60.8,100,29.96,0.2,East,4.6,-,N/A,Fog,Fog,80,2013-05-21 10:59:00
7:52 AM,62.1,62.1,100,29.96,0.5,Calm,Calm,-,N/A,Fog,Fog,0,2013-05-21 11:52:00
8:12 AM,62.6,62.6,100,29.95,1.8,South,3.5,-,N/A,,Overcast,180,2013-05-21 12:12:00
8:19 AM,64.4,62.6,94,29.95,2.0,WNW,3.5,-,N/A,,Overcast,300,2013-05-21 12:19:00
8:43 AM,64.4,64.4,100,29.95,4.0,Calm,Calm,-,N/A,,Mostly Cloudy,0,2013-05-21 12:43:00
8:52 AM,66.0,64.0,93,29.94,5.0,Calm,Calm,-,N/A,,Scattered Clouds,0,2013-05-21 12:52:00
9:52 AM,75.9,66.0,71,29.94,8.0,SW,8.1,-,N/A,,Clear,220,2013-05-21 13:52:00
10:52 AM,80.1,66.0,62,29.91,10.0,SSW,9.2,-,N/A,,Partly Cloudy,200,2013-05-21 14:52:00
11:52 AM,82.9,64.9,54,29.89,10.0,SW,10.4,-,N/A,,Scattered Clouds,220,2013-05-21 15:52:00
12:52 PM,84.0,66.0,55,29.87,10.0,SSW,11.5,17.3,N/A,,Mostly Cloudy,210,2013-05-21 16:52:00
1:52 PM,86.0,66.0,51,29.86,10.0,SW,9.2,-,N/A,,Scattered Clouds,230,2013-05-21 17:52:00
2:52 PM,87.1,66.9,51,29.84,10.0,SSW,11.5,17.3,N/A,,Scattered Clouds,200,2013-05-21 18:52:00
3:52 PM,87.1,66.9,51,29.83,8.0,SSW,10.4,17.3,N/A,,Partly Cloudy,210,2013-05-21 19:52:00
4:32 PM,86.0,66.2,51,29.83,10.0,South,13.8,-,N/A,Thunderstorm,Partly Cloudy,190,2013-05-21 20:32:00
4:52 PM,86.0,66.9,53,29.83,10.0,SSW,13.8,-,N/A,,Scattered Clouds,200,2013-05-21 20:52:00
5:01 PM,84.2,66.2,55,29.83,10.0,South,12.7,-,N/A,Thunderstorm,Scattered Clouds,190,2013-05-21 21:01:00
5:52 PM,81.0,66.0,60,29.85,10.0,South,10.4,-,N/A,Thunderstorm,Clear,190,2013-05-21 21:52:00
6:04 PM,80.6,66.2,61,29.86,10.0,South,8.1,-,N/A,Thunderstorm,Clear,180,2013-05-21 22:04:00
6:52 PM,73.9,66.9,79,29.89,6.0,ENE,9.2,-,0.01,Rain-Thunderstorm,Light Rain,70,2013-05-21 22:52:00
7:33 PM,68.0,64.4,88,29.92,4.0,East,5.8,-,0.03,Rain-Thunderstorm,Light Rain,90,2013-05-21 23:33:00
7:52 PM,68.0,64.9,90,29.94,6.0,NNE,8.1,-,0.05,Rain-Thunderstorm,Light Thunderstorms and Rain,20,2013-05-21 23:52:00
8:12 PM,66.2,64.4,94,29.93,10.0,ENE,11.5,-,0.00,Rain-Thunderstorm,Light Rain,60,2013-05-22 00:12:00
8:21 PM,64.4,62.6,94,29.94,10.0,NNE,11.5,-,0.00,Thunderstorm,Overcast,30,2013-05-22 00:21:00
8:34 PM,62.6,60.8,94,29.91,10.0,East,6.9,-,0.00,,Mostly Cloudy,100,2013-05-22 00:34:00
8:45 PM,62.6,60.8,94,29.91,10.0,Variable,5.8,-,0.00,,Scattered Clouds,0,2013-05-22 00:45:00
8:52 PM,61.0,59.0,93,29.91,10.0,East,3.5,-,0.00,,Mostly Cloudy,90,2013-05-22 00:52:00
9:52 PM,57.9,55.9,93,29.94,10.0,NE,8.1,-,N/A,,Overcast,50,2013-05-22 01:52:00
10:52 PM,57.0,54.0,89,29.93,10.0,ENE,6.9,-,N/A,,Overcast,70,2013-05-22 02:52:00
11:52 PM,55.9,53.1,90,29.94,10.0,ENE,4.6,-,N/A,,Overcast,70,2013-05-22 03:52:00